Weather History for KBUF - June, 2012

Change the Weather History Date:

Monday, June 4, 2012

  Actual Average Record
Temperature  
Mean Temperature 56 °F 63 °F  
Max Temperature 60 °F 72 °F 93 °F (1919)
Min Temperature 51 °F 54 °F 40 °F (1945)
Degree Days  
Heating Degree Days 9 4  
Month to date heating degree days 28 17  
Since 1 June heating degree days 28 17  
Since 1 July heating degree days 5228 6570  
Cooling Degree Days 0 2  
Month to date cooling degree days 0 8  
Year to date cooling degree days 94 34  
Since 1 June cooling degree days 0 8  
Growing Degree Days 6 (Base 50)    
Moisture  
Dew Point 50 °F    
Average Humidity 83    
Maximum Humidity 93    
Minimum Humidity 72    
Precipitation  
Precipitation 0.03 in 0.12 in 2.03 in (1890)
Month to date precipitation 1.98 0.49  
Year to date precipitation 13.93 15.50  
Snow  
Snow 0.00 in 0.00 in 0.00 in ()
Month to date snowfall 0.0 0.0  
Since 1 June snowfall 0.0 0.0  
Since 1 July snowfall 36.7 94.7  
Snow Depth 0.00 in    
Sea Level Pressure  
Sea Level Pressure 29.78 in    
Wind  
Wind Speed 8 mph (North)    
Max Wind Speed 16 mph    
Max Gust Speed 21 mph    
Visibility 7 miles    
Events Rain    
T = Trace of Precipitation, MM = Missing Value Source: NWS Daily Summary

Daily Weather History Graph

Daily Weather History Graph

Search for Another Location

Airport or City:

Trip Planner

Search our weather history database for the weather conditions in past years. The results will help you decide how hot, cold, wet, or windy it might be!

Date:

Astronomy

Jun. 04, 2012 Rise Set
Actual Time 5:37 AM EDT 8:49 PM EDT
Civil Twilight 5:02 AM EDT 9:24 PM EDT
Nautical Twilight 4:17 AM EDT 10:09 PM EDT
Astronomical Twilight 3:23 AM EDT 11:03 PM EDT
Moon 9:17 PM EDT (6/4) 5:42 AM EDT (6/4)
Length of Visible Light 16h 21m
Length of Day
15h 12m
Full, 100% of the Moon is Illuminated
Jun 4
Full
Jun 11
Last Quarter
Jun 19
New
Jun 26
First Quarter
Jul 3
Full

Hourly Weather History & Observations

Time (EDT) Temp. Dew Point Humidity Pressure Visibility Wind Dir Wind Speed Gust Speed Precip Events Conditions
12:54 AM 54.0 °F 50.0 °F 86% 29.70 in 10.0 mi North 4.6 mph - N/A   Mostly Cloudy
1:54 AM 54.0 °F 48.9 °F 83% 29.69 in 10.0 mi Calm Calm - N/A   Overcast
2:33 AM 53.6 °F 48.2 °F 82% 29.69 in 10.0 mi WNW 3.5 mph - 0.00 in   Mostly Cloudy
2:54 AM 54.0 °F 48.9 °F 83% 29.69 in 10.0 mi West 3.5 mph - 0.00 in   Overcast
3:29 AM 53.6 °F 48.2 °F 82% 29.69 in 10.0 mi NW 3.5 mph - N/A   Scattered Clouds
3:54 AM 53.1 °F 48.0 °F 83% 29.69 in 10.0 mi WNW 5.8 mph - N/A   Scattered Clouds
4:38 AM 51.8 °F 48.2 °F 88% 29.69 in 10.0 mi WNW 4.6 mph - N/A   Mostly Cloudy
4:54 AM 52.0 °F 48.9 °F 89% 29.70 in 10.0 mi West 4.6 mph - N/A   Mostly Cloudy
5:14 AM 51.8 °F 48.2 °F 88% 29.70 in 10.0 mi West 4.6 mph - N/A   Mostly Cloudy
5:54 AM 51.8 °F 48.2 °F 88% 29.71 in 10.0 mi West 4.6 mph - N/A   Mostly Cloudy
6:52 AM 51.8 °F 48.2 °F 88% 29.72 in 8.0 mi NW 5.8 mph - N/A   Mostly Cloudy
6:54 AM 52.0 °F 48.9 °F 89% 29.73 in 8.0 mi NW 5.8 mph - N/A   Mostly Cloudy
7:18 AM 53.6 °F 50.0 °F 88% 29.72 in 10.0 mi NNW 5.8 mph - N/A   Mostly Cloudy
7:46 AM 53.6 °F 50.0 °F 88% 29.73 in 10.0 mi NW 5.8 mph - N/A   Mostly Cloudy
7:54 AM 54.0 °F 50.0 °F 86% 29.73 in 10.0 mi NW 6.9 mph - N/A   Mostly Cloudy
8:18 AM 53.6 °F 50.0 °F 88% 29.73 in 4.0 mi NNW 9.2 mph - 0.00 in Rain Light Rain
8:27 AM 53.6 °F 50.0 °F 88% 29.73 in 3.0 mi NNW 8.1 mph - 0.00 in Rain Light Rain
8:33 AM 53.6 °F 51.8 °F 94% 29.74 in 1.8 mi NNW 6.9 mph - 0.00 in Rain Light Rain
8:49 AM 53.6 °F 51.8 °F 94% 29.74 in 2.0 mi NNW 10.4 mph - 0.01 in Rain Light Rain
8:54 AM 53.1 °F 51.1 °F 93% 29.75 in 2.0 mi NNW 9.2 mph - 0.01 in   Light Drizzle
9:17 AM 53.6 °F 51.8 °F 94% 29.75 in 3.0 mi North 8.1 mph - 0.00 in   Light Drizzle
9:29 AM 53.6 °F 51.8 °F 94% 29.75 in 2.0 mi North 5.8 mph - 0.00 in   Light Drizzle
9:38 AM 53.6 °F 51.8 °F 94% 29.75 in 1.8 mi NNE 11.5 mph - 0.00 in   Light Drizzle
9:54 AM 53.1 °F 51.1 °F 93% 29.76 in 1.8 mi NNE 5.8 mph - 0.00 in   Light Drizzle
10:01 AM 53.6 °F 51.8 °F 94% 29.75 in 2.5 mi NNE 5.8 mph - 0.00 in   Light Drizzle
10:09 AM 53.6 °F 51.8 °F 94% 29.76 in 6.0 mi NNE 9.2 mph - 0.01 in   Light Drizzle
10:35 AM 53.6 °F 51.8 °F 94% 29.77 in 2.0 mi NNE 9.2 mph - 0.01 in   Light Drizzle
10:54 AM 53.1 °F 51.1 °F 93% 29.78 in 3.0 mi NNE 9.2 mph - 0.01 in   Light Drizzle
11:19 AM 53.6 °F 50.0 °F 88% 29.78 in 1.8 mi NNE 10.4 mph - 0.00 in   Light Drizzle
11:35 AM 53.6 °F 50.0 °F 88% 29.79 in 2.0 mi NNE 12.7 mph - 0.01 in   Light Drizzle
11:44 AM 53.6 °F 50.0 °F 88% 29.79 in 2.0 mi NNE 12.7 mph 18.4 mph 0.01 in   Light Drizzle
11:49 AM 53.6 °F 50.0 °F 88% 29.80 in 2.0 mi NNE 10.4 mph - 0.01 in   Light Drizzle
11:54 AM 53.1 °F 50.0 °F 89% 29.81 in 2.0 mi NNE 8.1 mph - 0.01 in   Light Drizzle
12:05 PM 53.6 °F 50.0 °F 88% 29.80 in 6.0 mi NNE 11.5 mph 17.3 mph 0.00 in   Light Drizzle
12:54 PM 54.0 °F 50.0 °F 86% 29.82 in 10.0 mi NNE 9.2 mph 16.1 mph 0.00 in   Mostly Cloudy
1:15 PM 55.4 °F 50.0 °F 82% 29.82 in 10.0 mi NNE 8.1 mph - N/A   Overcast
1:54 PM 57.2 °F 50.0 °F 77% 29.81 in 10.0 mi NNE 16.1 mph 20.7 mph N/A   Mostly Cloudy
2:54 PM 57.9 °F 48.9 °F 72% 29.82 in 10.0 mi NNE 13.8 mph - N/A   Overcast
3:54 PM 57.9 °F 48.9 °F 72% 29.84 in 10.0 mi NNE 10.4 mph - N/A   Overcast
4:54 PM 57.0 °F 48.0 °F 72% 29.85 in 10.0 mi NE 12.7 mph - N/A   Overcast
5:54 PM 57.0 °F 48.0 °F 72% 29.85 in 10.0 mi NNE 9.2 mph - N/A   Overcast
6:54 PM 57.0 °F 48.0 °F 72% 29.86 in 9.0 mi NNE 12.7 mph - N/A   Overcast
7:54 PM 55.0 °F 48.0 °F 77% 29.88 in 10.0 mi NE 8.1 mph - 0.00 in   Overcast
8:54 PM 54.0 °F 48.0 °F 80% 29.89 in 10.0 mi NNE 5.8 mph - N/A   Overcast
9:54 PM 53.1 °F 48.0 °F 83% 29.91 in 10.0 mi NE 9.2 mph - N/A   Overcast
10:11 PM 53.6 °F 48.2 °F 82% 29.90 in 9.0 mi ENE 6.9 mph - N/A   Overcast
10:54 PM 53.1 °F 48.0 °F 83% 29.90 in 10.0 mi NNE 5.8 mph - 0.00 in   Overcast
11:54 PM 53.1 °F 48.0 °F 83% 29.91 in 10.0 mi NE 5.8 mph - N/A   Overcast